Regional Weather Roundup
Issued by NWS Nashville, TN

Home | Current Version | Previous Version | Text Only | Print | Product List | Glossary On
Versions: 1 2 3 4 5 6 7 8 9 10 11 12 13 14 15 16 17 18 19 20 21 22 23 24 25 26 27 28 29 30 31 32 33 34 35 36 37 38 39 40 41 42 43 44 45 46 47 48 49 50
000
ASUS44 KOHX 252310
RWROHX
MIDDLE TENNESSEE HOURLY WEATHER ROUNDUP
NATIONAL WEATHER SERVICE NASHVILLE TN
500 PM CST SAT FEB 25 2017

NOTE: "FAIR" INDICATES FEW OR NO CLOUDS BELOW 12,000 FEET WITH
NO SIGNIFICANT WEATHER AND/OR OBSTRUCTIONS TO VISIBILITY.

* THESE REPORTS ARE NOT UNDER NWS QUALITY CONTROL AND MAY NOT
  REPORT WEATHER SUCH AS PRECIPITATION AND FOG.


TNZ005>011-023>034-057-059-062>066-078-080-260000
...NORTHERN MIDDLE TENNESSEE...

CITY           SKY/WX    TMP DP  RH WIND       PRES   REMARKS
CLARKSVILLE    CLEAR     42  17  36 NW13      30.08R
CROSSVILLE     CLEAR     40  15  36 W12G17    29.98R WCI  33
GALLATIN       CLEAR     43  19  39 NW14      30.08S
DICKSON        CLEAR     42  16  35 NW12      30.06R
LIVINGSTON     CLEAR     41  19  41 NW9       30.01R
NASHVILLE      PTCLDY    47  15  27 NW10G20   30.05R
PORTLAND       CLEAR     41  21  45 NW8       30.06R
SMYRNA         CLEAR     46  18  32 NW12      30.06R
SPARTA         CLEAR     43  18  36 NW9       30.02R
SPRINGFIELD    CLEAR     41  21  45 NW8G15    30.05S
WEST NASHVILLE CLEAR     45  16  31 NW9       30.06R
$$
TNZ056-058-060-061-075>077-079-093>097-260000
...SOUTHERN MIDDLE TENNESSEE...

CITY           SKY/WX    TMP DP  RH WIND       PRES   REMARKS
COLUMBIA       CLEAR     46  16  29 NW8       30.05R
FAYETTEVILLE   CLEAR     48  19  32 W9        30.03R
LEWISBURG      CLEAR     47  19  33 VRB6      30.04
MCMINNVILLE    CLEAR     45  18  33 NW9       30.02S
MURFREESBORO     N/A     47  15  27 NW12      30.04R
SHELBYVILLE    CLEAR     48  19  32 W12       30.05R
TULLAHOMA      CLEAR     45  12  26 NW10      30.03S
WINCHESTER     CLEAR     46  19  34 NW8       30.03R
$$


...KEY TO REMARKS...
VSB - VISIBILITY IN MILES
WCI - WIND CHILL INDEX
HX  - HEAT INDEX




USA.gov is the U.S. government's official web portal to all federal, state and local government web resources and services.